Florennes, Belgium

3:36 AM CET on February 11, 2016 (GMT +0100)
Florennes Air Base

Weather History for EBFS - July, 2013

Change the Weather History Date:

Saturday, July 20, 2013

  Actual Average Record
Temperature  
Mean Temperature 66 °F -  
Max Temperature 75 °F 67 °F 86 °F (1998)
Min Temperature 56 °F 54 °F 35 °F (1996)
Growing Degree Days 16 (Base 50)    
Moisture  
Dew Point 57 °F    
Average Humidity 73    
Maximum Humidity 94    
Minimum Humidity 49    
Precipitation  
Precipitation 0.00 in - - ()
Sea Level Pressure  
Sea Level Pressure 30.14 in    
Wind  
Wind Speed 7 mph ()    
Max Wind Speed 12 mph    
Max Gust Speed -    
Visibility 7.3 miles    
Events      
Averages and records for this station are not official NWS values.
T = Trace of Precipitation, MM = Missing Value Source: Averaged Metar Reports

Daily Weather History Graph

Daily Weather History Graph

Search for Another Location

Airport or City:

Trip Planner

Search our weather history database for the weather conditions in past years. The results will help you decide how hot, cold, wet, or windy it might be!

Date:

Astronomy

Jul. 20, 2013 Rise Set
Actual Time 5:53 AM CEST 9:40 PM CEST
Civil Twilight 5:12 AM CEST 10:22 PM CEST
Nautical Twilight 4:15 AM CEST 11:18 PM CEST
Astronomical Twilight 2:44 AM CEST 12:46 AM CEST
Moon 7:27 PM CEST (7/20) 3:18 AM CEST (7/20)
Length of Visible Light 17h 09m
Length of Day
15h 47m
Waxing Gibbous, 92% of the Moon is Illuminated
Jul 20
Waxing Gibbous
Jul 22
Full
Jul 29
Last Quarter
Aug 6
New
Aug 14
First Quarter

Hourly Weather History & Observations

Time (CEST) Temp. Dew Point Humidity Pressure Visibility Wind Dir Wind Speed Gust Speed Precip Events Conditions
12:25 AM 64.4 °F 57.2 °F 77% 30.18 in 6.2 mi NE 8.1 mph - N/A   Partly Cloudy
12:55 AM 62.6 °F 55.4 °F 77% 30.18 in 6.2 mi NNE 8.1 mph - N/A   Partly Cloudy
1:25 AM 62.6 °F 55.4 °F 77% 30.18 in 6.2 mi NNE 6.9 mph - N/A   Partly Cloudy
1:55 AM 62.6 °F 55.4 °F 77% 30.18 in 6.2 mi NE 6.9 mph - N/A   Partly Cloudy
2:00 AM 62 °F 55 °F 73% 30.19 in 16 mi NE 6.7 mph - -   Clear
2:25 AM 62.6 °F 55.4 °F 77% 30.18 in 6.2 mi ENE 4.6 mph - N/A   Partly Cloudy
2:55 AM 60.8 °F 55.4 °F 82% 30.18 in 6.2 mi NE 5.8 mph - N/A   Partly Cloudy
3:55 AM 59.0 °F 55.4 °F 88% 30.15 in 6.2 mi NE 6.9 mph - N/A   Unknown
4:25 AM 59.0 °F 55.4 °F 88% 30.15 in 6.2 mi NNE 4.6 mph - N/A   Partly Cloudy
4:55 AM 59.0 °F 55.4 °F 88% 30.15 in 6.2 mi NNE 6.9 mph - N/A   Partly Cloudy
5:00 AM 58 °F 55 °F 86% 30.18 in 16 mi NNE 6.7 mph - -   Clear
5:25 AM 57.2 °F 55.4 °F 94% 30.15 in 6.2 mi NNE 4.6 mph - N/A   Partly Cloudy
5:55 AM 57.2 °F 55.4 °F 94% 30.15 in 6.2 mi NE 5.8 mph - N/A   Partly Cloudy
6:25 AM 57.2 °F 55.4 °F 94% 30.15 in 6.2 mi NE 3.5 mph - N/A   Partly Cloudy
6:55 AM 57.2 °F 55.4 °F 94% 30.15 in 6.2 mi NNE 5.8 mph - N/A   Partly Cloudy
7:25 AM 59.0 °F 55.4 °F 88% 30.15 in 6.2 mi NNE 4.6 mph - N/A   Partly Cloudy
7:55 AM 60.8 °F 55.4 °F 82% 30.15 in 6.2 mi NE 5.8 mph - N/A   Partly Cloudy
8:00 AM 60 °F 56 °F 82% 30.17 in 11 mi NE 6.7 mph - -   Clear
8:25 AM 62.6 °F 57.2 °F 82% 30.15 in 6.2 mi ENE 5.8 mph - N/A   Partly Cloudy
8:55 AM 62.6 °F 57.2 °F 82% 30.15 in 6.2 mi NE 6.9 mph - N/A   Partly Cloudy
9:25 AM 64.4 °F 57.2 °F 77% 30.15 in 6.2 mi NE 6.9 mph - N/A   Partly Cloudy
9:55 AM 66.2 °F 57.2 °F 73% 30.15 in 6.2 mi NNE 6.9 mph - N/A   Partly Cloudy
10:25 AM 66.2 °F 57.2 °F 73% 30.15 in 6.2 mi NNE 8.1 mph - N/A   Partly Cloudy
10:55 AM 68.0 °F 59.0 °F 73% 30.18 in 6.2 mi NNE 9.2 mph - N/A   Partly Cloudy
11:00 AM 68 °F 59 °F 65% 30.17 in 12 mi NNE 8.9 mph - -   Scattered Clouds
11:25 AM 69.8 °F 59.0 °F 68% 30.15 in 6.2 mi NNE 10.4 mph - N/A   Partly Cloudy
11:55 AM 69.8 °F 57.2 °F 64% 30.15 in 6.2 mi NNE 9.2 mph - N/A   Partly Cloudy
12:25 PM 69.8 °F 59.0 °F 68% 30.15 in 6.2 mi NNE 11.5 mph - N/A   Partly Cloudy
12:55 PM 71.6 °F 59.0 °F 64% 30.15 in 6.2 mi NNE 9.2 mph - N/A   Partly Cloudy
1:25 PM 71.6 °F 57.2 °F 60% 30.15 in 6.2 mi NE 10.4 mph - N/A   Partly Cloudy
1:55 PM 71.6 °F 57.2 °F 60% 30.15 in 6.2 mi NE 9.2 mph - N/A   Partly Cloudy
2:00 PM 72 °F 58 °F 52% 30.14 in 16 mi NE 8.9 mph - -   Scattered Clouds
2:25 PM 71.6 °F 57.2 °F 60% 30.15 in 6.2 mi NNE 10.4 mph - N/A   Partly Cloudy
2:55 PM 73.4 °F 57.2 °F 57% 30.12 in 6.2 mi ENE 8.1 mph - N/A   Partly Cloudy
3:25 PM 73.4 °F 59.0 °F 61% 30.12 in 6.2 mi NNE 8.1 mph - N/A   Partly Cloudy
3:55 PM 73.4 °F 57.2 °F 57% 30.12 in 6.2 mi ENE 10.4 mph - N/A   Partly Cloudy
4:25 PM 73.4 °F 59.0 °F 61% 30.12 in 6.2 mi NNE 10.4 mph - N/A   Partly Cloudy
4:55 PM 73.4 °F 59.0 °F 61% 30.12 in 6.2 mi NNE 9.2 mph - N/A   Partly Cloudy
5:00 PM 74 °F 58 °F 49% 30.11 in 16 mi NNE 8.9 mph - -   Clear
5:25 PM 73.4 °F 59.0 °F 61% 30.12 in 6.2 mi NNE 10.4 mph - N/A   Partly Cloudy
5:55 PM 73.4 °F 59.0 °F 61% 30.09 in 6.2 mi NNE 11.5 mph - N/A   Partly Cloudy
6:25 PM 73.4 °F 59.0 °F 61% 30.09 in 6.2 mi NNE 10.4 mph - N/A   Partly Cloudy
6:55 PM 71.6 °F 59.0 °F 64% 30.09 in 6.2 mi NE 10.4 mph - N/A   Partly Cloudy
7:25 PM 71.6 °F 59.0 °F 64% 30.09 in 6.2 mi NNE 8.1 mph - N/A   Partly Cloudy
7:55 PM 69.8 °F 59.0 °F 68% 30.09 in 6.2 mi NNE 9.2 mph - N/A   Partly Cloudy
8:00 PM 70 °F 59 °F 60% 30.10 in 14 mi NNE 8.9 mph - -   Clear
8:25 PM 68.0 °F 59.0 °F 73% 30.09 in 6.2 mi NE 9.2 mph - N/A   Partly Cloudy
8:55 PM 68.0 °F 59.0 °F 73% 30.09 in 6.2 mi NNE 8.1 mph - N/A   Unknown
9:25 PM 66.2 °F 59.0 °F 78% 30.09 in 6.2 mi NE 8.1 mph - N/A   Partly Cloudy
9:55 PM 64.4 °F 57.2 °F 77% 30.12 in 6.2 mi NE 5.8 mph - N/A   Partly Cloudy
10:25 PM 62.6 °F 57.2 °F 82% 30.12 in 6.2 mi NE 5.8 mph - N/A   Partly Cloudy
10:55 PM 62.6 °F 57.2 °F 82% 30.12 in 6.2 mi NNE 3.5 mph - N/A   Partly Cloudy
11:25 PM 62.6 °F 57.2 °F 82% 30.12 in 6.2 mi NNE 3.5 mph - N/A   Partly Cloudy
11:55 PM 60.8 °F 57.2 °F 88% 30.12 in 6.2 mi NE 3.5 mph - N/A   Partly Cloudy